User: anonymous   Login
Location: Nashville
(36.1660°N, 86.7840°W)
Time: 03:19:19
(UTC-06:00)
Language:

Transit 2A Rocket - Orbit

View from above orbital plane
View from above orbital plane
View from above satellite
View from above satellite

Ground track
Ground track

The orbit data is extracted from the following two-line orbital elements,

1    47U 60007C   22027.69835972  .00000054  00000-0  36719-4 0  9995
2    47  66.6663  19.2882 0233330 233.3254 124.6206 14.42226487220085
Epoch (UTC): 27 January 2022 16:45:38
Eccentricity: 0.0233330
inclination: 66.6663°
perigee height: 585 km
apogee height: 917 km
right ascension of ascending node: 19.2882°
argument of perigee: 233.3254°
revolutions per day: 14.42226487
mean anomaly at epoch: 124.6206°
orbit number at epoch: 22008

The dashed part of the orbit path shows where the satellite is in the earth's shadow,  

DLR